Preview of NWS' New Version of Forecast
This preview is not operational and should not be used for support decisions.

Regional Weather Roundup (RWR)

Issued by National Weather Service (NWS)

                            
000
ASUS44 KMEG 212000
RWRTN 
TENNESSEE HOURLY STATE WEATHER ROUNDUP
NATIONAL WEATHER SERVICE MEMPHIS TN
300 PM CDT SAT SEP 21 2019

TNZ002-004-019-021-049-052-054-088>092-212100-
WEST TENNESSEE
  
CITY           SKY/WX    TMP DP  RH WIND       PRES   REMARKS
MEMPHIS INTL   FAIR      90  58  33 SE12      30.14F                  
NWS MEMPHIS      N/A     90 N/A N/A MISG        N/A                   
JACKSON        FAIR      90  59  35 S8        30.16F                  
DYERSBURG      FAIR      90  60  36 S10G16    30.15F                  
$$

TNZ008-025-027-028-033-062-065-066-212100-
NORTH MIDDLE TENNESSEE
  
CITY           SKY/WX    TMP DP  RH WIND       PRES   REMARKS
NASHVILLE      FAIR      92  51  24 VRB6      30.18F                  
CLARKSVILLE    FAIR      89  55  31 CALM      30.16F                  
SMYRNA         FAIR      91  54  28 SE12      30.19F                  
CROSSVILLE     FAIR      83  55  38 VRB5      30.27F                  
$$

TNZ061-075-076-078-094-096-097-212100-
SOUTH MIDDLE TENNESSEE
  
CITY           SKY/WX    TMP DP  RH WIND       PRES   REMARKS
$$

TNZ017-018-042-046-047-212100-
NORTHEAST TENNESSEE
  
CITY           SKY/WX    TMP DP  RH WIND       PRES   REMARKS
TRI CITIES     FAIR      86  60  41 S6        30.25F                  
$$

TNZ012-013-036-069-073-074-212100-
CENTRAL EAST TENNESSEE
  
CITY           SKY/WX    TMP DP  RH WIND       PRES   REMARKS
KNOXVILLE      FAIR      87  56  34 W7        30.22F                  
OAK RIDGE      FAIR      87  58  37 MISG      30.24F                  
$$

TNZ083-085-099-212100-
SOUTHEAST TENNESSEE
  
CITY           SKY/WX    TMP DP  RH WIND       PRES   REMARKS
CHATTANOOGA    FAIR      88  56  33 SE8       30.22F                  
$$

SKY/WX REPORTED AS FAIR MEANS FEW OR NO CLOUDS BELOW
12 THOUSAND FEET.